Location: Derby
(52.9213°N, 1.4761°W)
Time: 02:39:19
(UTC+01:00)

A-11 Canister half - Pass Details

Date: 18 May 2025
Orbit: 1524 x 1684 km, 47.3° (Epoch: 12 June)

Event Time Altitude Azimuth Distance (km) Brightness Sun altitude
Rises 22:34:07 0° 255° (WSW) 4,732 11.8 -10.5°
Reaches altitude 10° 22:37:11 10° 252° (WSW) 3,768 11.3 -10.8°
Maximum altitude 22:46:35 63° 175° (S) 1,764 9.1 -11.6°
Drops below altitude 10° 22:56:20 10° 97° (E) 3,895 10.8 -12.4°
Sets 22:59:32 0° 95° (E) 4,900 11.3 -12.6°
